,,,PA_Meas_PMT16A,,PR_Meas_QMR101_102,,RH_Meas_QMH101,,SR_Meas_QMS101,,TA_Meas_QMH101,,GenWind,,GenWind,
date,time,status,PA,status,PR,status,RH,status,SR,status,TA,status,DirAvg,status,SpdAvg,
2014-08-09, 00:00:04,VALID,1012.63,VALID,0,VALID,88.0241,VALID,0,VALID,25.1947,VALID,152,VALID,0,
2014-08-09, 00:01:04,VALID,1012.63,VALID,0,VALID,87.7648,VALID,0,VALID,25.2142,VALID,152,VALID,0,
2014-08-09, 00:02:04,VALID,1012.6,VALID,0,VALID,87.7419,VALID,0,VALID,25.1947,VALID,152,VALID,0,
2014-08-09, 00:03:04,VALID,1012.56,VALID,0,VALID,87.7953,VALID,0,VALID,25.1947,VALID,152,VALID,0,
2014-08-09, 00:04:04,VALID,1012.57,VALID,0,VALID,87.7953,VALID,0,VALID,25.1966,VALID,152,VALID,0,
2014-08-09, 00:05:04,VALID,1012.57,VALID,0,VALID,87.9021,VALID,0,VALID,25.1947,VALID,152,VALID,0,
2014-08-09, 00:06:04,VALID,1012.52,VALID,0,VALID,87.9402,VALID,0,VALID,25.2142,VALID,152,VALID,0,
2014-08-09, 00:07:04,VALID,1012.48,VALID,0,VALID,87.8487,VALID,0,VALID,25.1947,VALID,152,VALID,0,
2014-08-09, 00:08:04,VALID,1012.48,VALID,0,VALID,87.6657,VALID,0,VALID,25.1557,VALID,152,VALID,0,
2014-08-09, 00:09:04,VALID,1012.45,VALID,0,VALID,87.5513,VALID,0,VALID,25.1343,VALID,152,VALID,0,
2014-08-09, 00:10:04,VALID,1012.45,VALID,0,VALID,87.5742,VALID,0,VALID,25.1752,VALID,152,VALID,0,
2014-08-09, 00:11:04,VALID,1012.43,VALID,0,VALID,87.5208,VALID,0.112112,VALID,25.1752,VALID,152,VALID,0,
2014-08-09, 00:12:04,VALID,1012.41,VALID,0,VALID,87.6123,VALID,0,VALID,25.1538,VALID,152,VALID,0,
2014-08-09, 00:13:04,VALID,1012.4,VALID,0,VALID,87.4369,VALID,0,VALID,25.1538,VALID,152,VALID,0,
2014-08-09, 00:14:04,VALID,1012.38,VALID,0,VALID,87.3073,VALID,0,VALID,25.1557,VALID,152,VALID,0,
2014-08-09, 00:15:04,VALID,1012.34,VALID,0,VALID,87.414,VALID,0,VALID,25.1752,VALID,152,VALID,0,
2014-08-09, 00:16:04,VALID,1012.33,VALID,0,VALID,87.1776,VALID,0,VALID,25.1538,VALID,152,VALID,0,
2014-08-09, 00:17:04,VALID,1012.33,VALID,0,VALID,87.1929,VALID,0,VALID,25.1752,VALID,152,VALID,0,
2014-08-09, 00:18:04,VALID,1012.29,VALID,0,VALID,87.2081,VALID,0,VALID,25.1752,VALID,152,VALID,0,
2014-08-09, 00:19:04,VALID,1012.27,VALID,0,VALID,87.2539,VALID,0,VALID,25.1362,VALID,152,VALID,0,
2014-08-09, 00:20:04,VALID,1012.26,VALID,0,VALID,87.2234,VALID,0,VALID,25.1167,VALID,152,VALID,0,
2014-08-09, 00:21:04,VALID,1012.26,VALID,0,VALID,87.0632,VALID,0,VALID,25.0973,VALID,152,VALID,0,
2014-08-09, 00:22:04,VALID,1012.23,VALID,0,VALID,87.0709,VALID,0,VALID,25.1167,VALID,152,VALID,0,
2014-08-09, 00:23:04,VALID,1012.21,VALID,0,VALID,87.1852,VALID,0,VALID,25.0973,VALID,152,VALID,0,
2014-08-09, 00:24:04,VALID,1012.19,VALID,0,VALID,87.1547,VALID,0,VALID,25.0973,VALID,152,VALID,0,
2014-08-09, 00:25:04,VALID,1012.19,VALID,0,VALID,87.0709,VALID,0,VALID,25.0778,VALID,152,VALID,0,
2014-08-09, 00:26:04,VALID,1012.17,VALID,0,VALID,86.926,VALID,0,VALID,25.0778,VALID,183,VALID,0,
2014-08-09, 00:27:04,VALID,1012.18,VALID,0,VALID,86.9488,VALID,0,VALID,25.0759,VALID,184,VALID,0,
2014-08-09, 00:28:04,VALID,1012.18,VALID,0,VALID,86.9793,VALID,0,VALID,25.0778,VALID,184,VALID,0,
2014-08-09, 00:29:04,VALID,1012.17,VALID,0,VALID,87.048,VALID,0,VALID,25.0973,VALID,184,VALID,0,
2014-08-09, 00:30:04,VALID,1012.16,VALID,0,VALID,86.987,VALID,0,VALID,25.0583,VALID,184,VALID,0,
2014-08-09, 00:31:04,VALID,1012.16,VALID,0,VALID,86.9946,VALID,0,VALID,25.0778,VALID,184,VALID,0,
2014-08-09, 00:32:04,VALID,1012.15,VALID,0,VALID,86.9946,VALID,0,VALID,25.0583,VALID,184,VALID,0,
2014-08-09, 00:33:04,VALID,1012.15,VALID,0,VALID,87.0251,VALID,0,VALID,25.0369,VALID,184,VALID,0,
2014-08-09, 00:34:04,VALID,1012.12,VALID,0,VALID,86.987,VALID,0,VALID,25.0174,VALID,184,VALID,0,
2014-08-09, 00:35:04,VALID,1012.08,VALID,0,VALID,86.9946,VALID,0,VALID,25.0583,VALID,184,VALID,0,
2014-08-09, 00:36:04,VALID,1012.07,VALID,0,VALID,86.8116,VALID,0,VALID,25.0388,VALID,184,VALID,0,
2014-08-09, 00:37:04,VALID,1012.09,VALID,0,VALID,86.7048,VALID,0,VALID,25.0193,VALID,184,VALID,0,
2014-08-09, 00:38:04,VALID,1012.06,VALID,0,VALID,86.7811,VALID,0,VALID,25.0193,VALID,184,VALID,0,
2014-08-09, 00:39:04,VALID,1012.03,VALID,0,VALID,86.7582,VALID,0,VALID,25.0388,VALID,184,VALID,0,
2014-08-09, 00:40:04,VALID,1012.04,VALID,0,VALID,87.0937,VALID,0,VALID,25.0193,VALID,184,VALID,0,
2014-08-09, 00:41:04,VALID,1012.04,VALID,0,VALID,87.3911,VALID,0,VALID,24.9608,VALID,156,VALID,0,
2014-08-09, 00:42:04,VALID,1012.04,VALID,0,VALID,87.4826,VALID,0,VALID,24.9432,VALID,156,VALID,0,
2014-08-09, 00:43:04,VALID,1012.05,VALID,0,VALID,87.3301,VALID,0,VALID,24.9218,VALID,156,VALID,0,
2014-08-09, 00:44:04,VALID,1012.08,VALID,0,VALID,87.2691,VALID,0,VALID,24.9023,VALID,156,VALID,0,
2014-08-09, 00:45:04,VALID,1012.08,VALID,0,VALID,87.2691,VALID,0,VALID,24.9237,VALID,156,VALID,0,
2014-08-09, 00:46:04,VALID,1012.09,VALID,0,VALID,87.2996,VALID,0,VALID,24.9042,VALID,156,VALID,0,
2014-08-09, 00:47:04,VALID,1012.11,VALID,0,VALID,87.3683,VALID,0,VALID,24.9023,VALID,156,VALID,0,
2014-08-09, 00:48:04,VALID,1012.12,VALID,0,VALID,87.4903,VALID,0,VALID,24.9023,VALID,156,VALID,0,
2014-08-09, 00:49:04,VALID,1012.13,VALID,0,VALID,87.5131,VALID,0,VALID,24.8828,VALID,156,VALID,0,
2014-08-09, 00:50:04,VALID,1012.14,VALID,0,VALID,87.5894,VALID,0,VALID,24.9023,VALID,156,VALID,0,
2014-08-09, 00:51:04,VALID,1012.11,VALID,0,VALID,87.597,VALID,0,VALID,24.8828,VALID,156,VALID,0,
2014-08-09, 00:52:04,VALID,1012.1,VALID,0,VALID,87.6657,VALID,0,VALID,24.8633,VALID,156,VALID,0,
2014-08-09, 00:53:04,VALID,1012.11,VALID,0,VALID,87.7267,VALID,0,VALID,24.8633,VALID,156,VALID,0,
2014-08-09, 00:54:04,VALID,1012.08,VALID,0,VALID,87.8487,VALID,0,VALID,24.8438,VALID,156,VALID,0,
2014-08-09, 00:55:04,VALID,1012.08,VALID,0,VALID,87.9326,VALID,0,VALID,24.8438,VALID,156,VALID,0,
2014-08-09, 00:56:04,VALID,1012.05,VALID,0,VALID,88.0164,VALID,0,VALID,24.8652,VALID,156,VALID,0,
2014-08-09, 00:57:04,VALID,1012.07,VALID,0,VALID,88.0012,VALID,0,VALID,24.8438,VALID,156,VALID,0,
2014-08-09, 00:58:04,VALID,1012.03,VALID,0,VALID,87.9859,VALID,0,VALID,24.8244,VALID,156,VALID,0,
2014-08-09, 00:59:04,VALID,1012.01,VALID,0,VALID,88.0393,VALID,0,VALID,24.8244,VALID,156,VALID,0,
2014-08-09, 01:00:04,VALID,1012,VALID,0,VALID,88.1156,VALID,0,VALID,24.8049,VALID,156,VALID,0,
2014-08-09, 01:01:04,VALID,1011.97,VALID,0,VALID,88.3291,VALID,0,VALID,24.8049,VALID,156,VALID,0,
2014-08-09, 01:02:04,VALID,1011.98,VALID,0,VALID,88.657,VALID,0,VALID,24.8049,VALID,156,VALID,0,
2014-08-09, 01:03:04,VALID,1011.98,VALID,0,VALID,88.8629,VALID,0,VALID,24.7854,VALID,156,VALID,0,
2014-08-09, 01:04:04,VALID,1011.97,VALID,0,VALID,88.8934,VALID,0,VALID,24.7872,VALID,156,VALID,0,
2014-08-09, 01:05:04,VALID,1011.98,VALID,0,VALID,88.962,VALID,0,VALID,24.7872,VALID,156,VALID,0,
2014-08-09, 01:06:04,VALID,1011.96,VALID,0,VALID,89.0383,VALID,0,VALID,24.7464,VALID,156,VALID,0,
2014-08-09, 01:07:04,VALID,1011.95,VALID,0,VALID,89.1603,VALID,0,VALID,24.7464,VALID,156,VALID,0,
2014-08-09, 01:08:04,VALID,1011.94,VALID,0,VALID,89.3128,VALID,0,VALID,24.7269,VALID,156,VALID,0,
2014-08-09, 01:09:04,VALID,1011.93,VALID,0,VALID,89.4958,VALID,0,VALID,24.7269,VALID,156,VALID,0,
2014-08-09, 01:10:04,VALID,1011.92,VALID,0,VALID,89.7094,VALID,0,VALID,24.7074,VALID,156,VALID,0,
2014-08-09, 01:11:04,VALID,1011.92,VALID,0,VALID,89.9381,VALID,0,VALID,24.6879,VALID,156,VALID,0,
2014-08-09, 01:12:04,VALID,1011.88,VALID,0,VALID,90.2508,VALID,0,VALID,24.6684,VALID,156,VALID,0,
2014-08-09, 01:13:04,VALID,1011.88,VALID,0,VALID,90.5101,VALID,0,VALID,24.6703,VALID,156,VALID,0,
2014-08-09, 01:14:04,VALID,1011.87,VALID,0,VALID,90.7922,VALID,0,VALID,24.6099,VALID,156,VALID,0,
2014-08-09, 01:15:04,VALID,1011.83,VALID,0,VALID,91.3108,VALID,0,VALID,24.6313,VALID,156,VALID,0,
2014-08-09, 01:16:04,VALID,1011.81,VALID,0,VALID,92.2487,VALID,0,VALID,24.6118,VALID,156,VALID,0,
2014-08-09, 01:17:04,VALID,1011.82,VALID,0,VALID,93.1715,VALID,0,VALID,24.571,VALID,156,VALID,0,
2014-08-09, 01:18:04,VALID,1011.77,VALID,0,VALID,94.0103,VALID,0,VALID,24.5923,VALID,156,VALID,0,
2014-08-09, 01:19:04,VALID,1011.77,VALID,0,VALID,94.7652,VALID,0,VALID,24.5728,VALID,156,VALID,0,
2014-08-09, 01:20:04,VALID,1011.77,VALID,0,VALID,95.0016,VALID,0,VALID,24.5515,VALID,156,VALID,0,
2014-08-09, 01:21:04,VALID,1011.74,VALID,0,VALID,95.3524,VALID,0,VALID,24.5533,VALID,156,VALID,0,
2014-08-09, 01:22:04,VALID,1011.71,VALID,0,VALID,95.8633,VALID,0,VALID,24.5728,VALID,156,VALID,0,
2014-08-09, 01:23:04,VALID,1011.73,VALID,0,VALID,95.8023,VALID,0,VALID,24.532,VALID,156,VALID,0,
2014-08-09, 01:24:04,VALID,1011.7,VALID,0,VALID,95.8252,VALID,0,VALID,24.5533,VALID,156,VALID,0,
2014-08-09, 01:25:04,VALID,1011.67,VALID,0,VALID,95.9701,VALID,0,VALID,24.532,VALID,156,VALID,0,
2014-08-09, 01:26:04,VALID,1011.66,VALID,0,VALID,96.1608,VALID,0.112112,VALID,24.5515,VALID,156,VALID,0,
2014-08-09, 01:27:04,VALID,1011.67,VALID,0,VALID,96.9843,VALID,0.112112,VALID,24.5301,VALID,156,VALID,0,
2014-08-09, 01:28:04,VALID,1011.67,VALID,0,VALID,97.236,VALID,0,VALID,24.5106,VALID,156,VALID,0,
2014-08-09, 01:29:04,VALID,1011.66,VALID,0,VALID,97.0987,VALID,0.112112,VALID,24.5106,VALID,156,VALID,0,
2014-08-09, 01:30:04,VALID,1011.62,VALID,0,VALID,97.0987,VALID,0.112112,VALID,24.4911,VALID,156,VALID,0,
2014-08-09, 01:31:04,VALID,1011.61,VALID,0,VALID,97.0301,VALID,0,VALID,24.4911,VALID,156,VALID,0,
2014-08-09, 01:32:04,VALID,1011.62,VALID,0,VALID,96.9386,VALID,0.112112,VALID,24.4911,VALID,156,VALID,0,
2014-08-09, 01:33:04,VALID,1011.62,VALID,0,VALID,96.4658,VALID,0,VALID,24.4911,VALID,156,VALID,0,
2014-08-09, 01:34:04,VALID,1011.63,VALID,0,VALID,95.9701,VALID,0.112112,VALID,24.4717,VALID,156,VALID,0,
2014-08-09, 01:35:04,VALID,1011.61,VALID,0,VALID,95.688,VALID,0.112112,VALID,24.4522,VALID,156,VALID,0,
2014-08-09, 01:36:04,VALID,1011.61,VALID,0,VALID,94.8034,VALID,0,VALID,24.4522,VALID,156,VALID,0,
2014-08-09, 01:37:04,VALID,1011.57,VALID,0,VALID,94.506,VALID,0.112112,VALID,24.4327,VALID,156,VALID,0,
2014-08-09, 01:38:04,VALID,1011.58,VALID,0,VALID,94.2314,VALID,0.112112,VALID,24.4327,VALID,156,VALID,0,
2014-08-09, 01:39:04,VALID,1011.59,VALID,0,VALID,94.1247,VALID,0.112112,VALID,24.4327,VALID,156,VALID,0,
2014-08-09, 01:40:04,VALID,1011.58,VALID,0,VALID,93.9493,VALID,0.112112,VALID,24.4132,VALID,156,VALID,0,
2014-08-09, 01:41:04,VALID,1011.57,VALID,0,VALID,93.9493,VALID,0,VALID,24.415,VALID,156,VALID,0,
2014-08-09, 01:42:04,VALID,1011.59,VALID,0,VALID,94.2238,VALID,0,VALID,24.4345,VALID,156,VALID,0,
2014-08-09, 01:43:04,VALID,1011.55,VALID,0,VALID,94.3687,VALID,0,VALID,24.415,VALID,156,VALID,0,
2014-08-09, 01:44:04,VALID,1011.56,VALID,0,VALID,94.3992,VALID,0,VALID,24.415,VALID,156,VALID,0,
2014-08-09, 01:45:04,VALID,1011.54,VALID,0,VALID,94.3611,VALID,0.112112,VALID,24.4345,VALID,156,VALID,0,
2014-08-09, 01:46:04,VALID,1011.54,VALID,0,VALID,93.7739,VALID,0,VALID,24.415,VALID,156,VALID,0,
2014-08-09, 01:47:04,VALID,1011.52,VALID,0,VALID,93.5756,VALID,0,VALID,24.3761,VALID,156,VALID,0,
2014-08-09, 01:48:04,VALID,1011.55,VALID,0,VALID,94.2238,VALID,0,VALID,24.3761,VALID,156,VALID,0,
2014-08-09, 01:49:04,VALID,1011.54,VALID,0,VALID,94.7195,VALID,0,VALID,24.3566,VALID,156,VALID,0,
2014-08-09, 01:50:04,VALID,1011.54,VALID,0,VALID,94.7347,VALID,0,VALID,24.3371,VALID,156,VALID,0,
2014-08-09, 01:51:04,VALID,1011.52,VALID,0,VALID,94.8034,VALID,0,VALID,24.3176,VALID,156,VALID,0,
2014-08-09, 01:52:04,VALID,1011.51,VALID,0,VALID,95.1313,VALID,0,VALID,24.3176,VALID,156,VALID,0,
2014-08-09, 01:53:04,VALID,1011.47,VALID,0,VALID,95.2152,VALID,0,VALID,24.2981,VALID,156,VALID,0,
2014-08-09, 01:54:04,VALID,1011.48,VALID,0,VALID,95.5812,VALID,0.112112,VALID,24.2786,VALID,156,VALID,0,
2014-08-09, 01:55:04,VALID,1011.46,VALID,0,VALID,95.9701,VALID,0,VALID,24.2591,VALID,156,VALID,0,
2014-08-09, 01:56:04,VALID,1011.45,VALID,0,VALID,96.5115,VALID,0,VALID,24.2396,VALID,156,VALID,0,
2014-08-09, 01:57:04,VALID,1011.48,VALID,0,VALID,96.9996,VALID,0,VALID,24.2202,VALID,156,VALID,0,
2014-08-09, 01:58:04,VALID,1011.45,VALID,0,VALID,97.4037,VALID,0.112112,VALID,24.2202,VALID,156,VALID,0,
2014-08-09, 01:59:04,VALID,1011.46,VALID,0,VALID,97.8994,VALID,0,VALID,24.1988,VALID,156,VALID,0,
2014-08-09, 02:00:04,VALID,1011.46,VALID,0,VALID,98.357,VALID,0,VALID,24.2202,VALID,156,VALID,0,
2014-08-09, 02:01:04,VALID,1011.45,VALID,0,VALID,99.3102,VALID,0.112112,VALID,24.2396,VALID,156,VALID,0,
2014-08-09, 02:02:04,VALID,1011.42,VALID,0,VALID,99.5161,VALID,0,VALID,24.2202,VALID,156,VALID,0,
2014-08-09, 02:03:04,VALID,1011.44,VALID,0,VALID,99.6152,VALID,0.112112,VALID,24.2202,VALID,156,VALID,0,
2014-08-09, 02:04:04,VALID,1011.43,VALID,0,VALID,99.9508,VALID,0,VALID,24.2007,VALID,156,VALID,0,
2014-08-09, 02:05:04,VALID,1011.43,VALID,0,VALID,100.965,VALID,0,VALID,24.2007,VALID,156,VALID,0,
2014-08-09, 02:06:04,VALID,1011.4,VALID,0,VALID,101.888,VALID,0.112112,VALID,24.1793,VALID,156,VALID,0,
2014-08-09, 02:07:04,VALID,1011.42,VALID,0,VALID,102.803,VALID,0,VALID,24.1812,VALID,156,VALID,0,
2014-08-09, 02:08:04,VALID,1011.37,VALID,0,VALID,103.718,VALID,0,VALID,24.1599,VALID,156,VALID,0,
2014-08-09, 02:09:04,VALID,1011.35,VALID,0,VALID,104,VALID,0,VALID,24.1617,VALID,156,VALID,0,
2014-08-09, 02:10:04,VALID,1011.35,VALID,0,VALID,104,VALID,0,VALID,24.1617,VALID,156,VALID,0,
2014-08-09, 02:11:04,VALID,1011.3,VALID,0,VALID,104,VALID,0,VALID,24.1422,VALID,156,VALID,0,
2014-08-09, 02:12:04,VALID,1011.3,VALID,0,VALID,104,VALID,0.112112,VALID,24.1227,VALID,156,VALID,0,
2014-08-09, 02:13:04,VALID,1011.26,VALID,0,VALID,104,VALID,0,VALID,24.1032,VALID,156,VALID,0,
2014-08-09, 02:14:04,VALID,1011.22,VALID,0,VALID,104,VALID,0,VALID,24.1032,VALID,156,VALID,0,
2014-08-09, 02:15:04,VALID,1011.19,VALID,0,INVALID,110.459,VALID,0.112112,VALID,24.1032,VALID,156,VALID,0,
2014-08-09, 02:16:04,VALID,1011.18,VALID,0,INVALID,111.1,VALID,0,VALID,24.0643,VALID,156,VALID,0,
2014-08-09, 02:17:04,VALID,1011.11,VALID,0,INVALID,111.031,VALID,0,VALID,24.0643,VALID,156,VALID,0,
2014-08-09, 02:18:04,VALID,1011.12,VALID,0,INVALID,110.962,VALID,0,VALID,24.0253,VALID,156,VALID,0,
2014-08-09, 02:19:04,VALID,1011.15,VALID,0,INVALID,111.435,VALID,0.112112,VALID,24.0058,VALID,156,VALID,0,
2014-08-09, 02:20:04,VALID,1011.13,VALID,0,INVALID,113.891,VALID,0,VALID,24.0058,VALID,156,VALID,0,
2014-08-09, 02:21:04,VALID,1011.12,VALID,0,INVALID,117.978,VALID,0.112112,VALID,23.9863,VALID,156,VALID,0,
2014-08-09, 02:22:04,VALID,1011.13,VALID,0,INVALID,119.724,VALID,0,VALID,23.926,VALID,156,VALID,0,
2014-08-09, 02:23:04,VALID,1011.13,VALID,0,INVALID,122.744,VALID,0,VALID,23.9084,VALID,156,VALID,0,
2014-08-09, 02:24:04,VALID,1011.13,VALID,0,INVALID,126.45,VALID,0,VALID,23.8694,VALID,156,VALID,0,
2014-08-09, 02:25:04,VALID,1011.08,VALID,0,INVALID,132.612,VALID,0.112112,VALID,23.8499,VALID,156,VALID,0,
2014-08-09, 02:26:04,VALID,1011.08,VALID,0,INVALID,136.76,VALID,0.112112,VALID,23.8304,VALID,156,VALID,0,
2014-08-09, 02:27:04,VALID,1011.07,VALID,0,INVALID,140.787,VALID,0,VALID,23.8127,VALID,156,VALID,0,
2014-08-09, 02:28:04,VALID,1011.06,VALID,0,INVALID,144.493,VALID,0,VALID,23.772,VALID,156,VALID,0,
2014-08-09, 02:29:04,VALID,1011.08,VALID,0,INVALID,147.36,VALID,0,VALID,23.7117,VALID,156,VALID,0,
2014-08-09, 02:30:04,VALID,1011.07,VALID,0,INVALID,150.136,VALID,0,VALID,23.7135,VALID,156,VALID,0,
2014-08-09, 02:31:04,VALID,1011.07,VALID,0,INVALID,153.407,VALID,0,VALID,23.694,VALID,156,VALID,0,
2014-08-09, 02:32:04,VALID,1011.09,VALID,0,INVALID,155.97,VALID,0,VALID,23.6745,VALID,156,VALID,0,
2014-08-09, 02:33:04,VALID,1011.1,VALID,0,INVALID,158.25,VALID,0,VALID,23.694,VALID,156,VALID,0,
2014-08-09, 02:34:04,VALID,1011.1,VALID,0,INVALID,159.866,VALID,0,VALID,23.6745,VALID,156,VALID,0,
2014-08-09, 02:35:04,VALID,1011.09,VALID,0,INVALID,160.728,VALID,0,VALID,23.655,VALID,156,VALID,0,
2014-08-09, 02:36:04,VALID,1011.07,VALID,0,INVALID,161.048,VALID,0,VALID,23.6356,VALID,156,VALID,0,
2014-08-09, 02:37:04,VALID,1011.07,VALID,0,INVALID,161.308,VALID,0,VALID,23.6356,VALID,156,VALID,0,
2014-08-09, 02:38:04,VALID,1011.04,VALID,0,INVALID,161.384,VALID,0,VALID,23.6356,VALID,156,VALID,0,
2014-08-09, 02:39:04,VALID,1011.01,VALID,0,INVALID,161.369,VALID,0,VALID,23.6356,VALID,156,VALID,0,
2014-08-09, 02:40:04,VALID,1011.02,VALID,0,INVALID,161.414,VALID,0,VALID,23.6338,VALID,156,VALID,0,
2014-08-09, 02:41:04,VALID,1011.01,VALID,0,INVALID,161.384,VALID,0,VALID,23.655,VALID,156,VALID,0,
2014-08-09, 02:42:04,VALID,1011.03,VALID,0,INVALID,161.414,VALID,0,VALID,23.655,VALID,156,VALID,0,
2014-08-09, 02:43:04,VALID,1011.02,VALID,0,INVALID,161.384,VALID,0,VALID,23.655,VALID,156,VALID,0,
2014-08-09, 02:44:04,VALID,1011.02,VALID,0,INVALID,161.407,VALID,0.112112,VALID,23.655,VALID,156,VALID,0,
2014-08-09, 02:45:04,VALID,1011.05,VALID,0,INVALID,161.391,VALID,0,VALID,23.6532,VALID,124,VALID,0,
2014-08-09, 02:46:04,VALID,1011.02,VALID,0,INVALID,161.407,VALID,0,VALID,23.6745,VALID,124,VALID,0,
2014-08-09, 02:47:04,VALID,1011.02,VALID,0,INVALID,161.407,VALID,0,VALID,23.655,VALID,124,VALID,0,
2014-08-09, 02:48:04,VALID,1011.03,VALID,0,INVALID,161.407,VALID,0.112112,VALID,23.655,VALID,124,VALID,0,
2014-08-09, 02:49:04,VALID,1011.01,VALID,0,INVALID,161.384,VALID,0,VALID,23.655,VALID,124,VALID,0,
2014-08-09, 02:50:04,VALID,1010.99,VALID,0,INVALID,161.407,VALID,0,VALID,23.655,VALID,124,VALID,0,
2014-08-09, 02:51:04,VALID,1011,VALID,0,INVALID,161.437,VALID,0,VALID,23.6356,VALID,124,VALID,0,
2014-08-09, 02:52:04,VALID,1010.98,VALID,0,INVALID,161.414,VALID,0,VALID,23.6356,VALID,124,VALID,0,
2014-08-09, 02:53:04,VALID,1010.97,VALID,0,INVALID,161.399,VALID,0,VALID,23.6356,VALID,124,VALID,0,
2014-08-09, 02:54:04,VALID,1010.95,VALID,0,INVALID,161.399,VALID,0,VALID,23.6143,VALID,124,VALID,0,
2014-08-09, 02:55:04,VALID,1010.93,VALID,0,INVALID,161.376,VALID,0.112112,VALID,23.6161,VALID,124,VALID,0,
2014-08-09, 02:56:04,VALID,1010.96,VALID,0,INVALID,161.414,VALID,0,VALID,23.6179,VALID,124,VALID,0,
2014-08-09, 02:57:04,VALID,1010.94,VALID,0,INVALID,161.414,VALID,0,VALID,23.5771,VALID,124,VALID,0,
2014-08-09, 02:58:04,VALID,1010.92,VALID,0,INVALID,161.407,VALID,0,VALID,23.5966,VALID,124,VALID,0,
2014-08-09, 02:59:04,VALID,1010.94,VALID,0,INVALID,161.407,VALID,0,VALID,23.5771,VALID,124,VALID,0,
2014-08-09, 03:00:04,VALID,1010.91,VALID,0,INVALID,161.414,VALID,0,VALID,23.5771,VALID,124,VALID,0,
2014-08-09, 03:01:04,VALID,1010.92,VALID,0,INVALID,161.399,VALID,0,VALID,23.5594,VALID,124,VALID,0,
2014-08-09, 03:02:04,VALID,1010.91,VALID,0,INVALID,161.407,VALID,0,VALID,23.5381,VALID,124,VALID,0,
2014-08-09, 03:03:04,VALID,1010.95,VALID,0,INVALID,161.43,VALID,0,VALID,23.5399,VALID,124,VALID,0,
2014-08-09, 03:04:04,VALID,1010.95,VALID,0,INVALID,161.407,VALID,0,VALID,23.4992,VALID,124,VALID,0,
2014-08-09, 03:05:04,VALID,1010.98,VALID,0,INVALID,161.437,VALID,0,VALID,23.4992,VALID,124,VALID,0,
2014-08-09, 03:06:04,VALID,1010.96,VALID,0,INVALID,161.384,VALID,0,VALID,23.4992,VALID,124,VALID,0,
2014-08-09, 03:07:04,VALID,1010.94,VALID,0,INVALID,161.414,VALID,0,VALID,23.5186,VALID,124,VALID,0,
2014-08-09, 03:08:04,VALID,1010.96,VALID,0,INVALID,161.437,VALID,0,VALID,23.4974,VALID,124,VALID,0,
2014-08-09, 03:09:04,VALID,1011,VALID,0,INVALID,161.399,VALID,0,VALID,23.4779,VALID,124,VALID,0,
2014-08-09, 03:10:04,VALID,1010.99,VALID,0,INVALID,161.399,VALID,0,VALID,23.4992,VALID,124,VALID,0,
2014-08-09, 03:11:04,VALID,1011.02,VALID,0,INVALID,161.422,VALID,0,VALID,23.4992,VALID,111,VALID,0,
2014-08-09, 03:12:04,VALID,1011,VALID,0,INVALID,161.422,VALID,0,VALID,23.4992,VALID,106,VALID,0,
2014-08-09, 03:13:04,VALID,1011,VALID,0,INVALID,161.384,VALID,0,VALID,23.4797,VALID,106,VALID,0,
2014-08-09, 03:14:04,VALID,1011.01,VALID,0,INVALID,161.414,VALID,0,VALID,23.4797,VALID,106,VALID,0,
2014-08-09, 03:15:04,VALID,1011,VALID,0,INVALID,161.414,VALID,0,VALID,23.4602,VALID,106,VALID,0,
2014-08-09, 03:16:04,VALID,1011.01,VALID,0,INVALID,161.407,VALID,0.112112,VALID,23.4602,VALID,106,VALID,0,
2014-08-09, 03:17:04,VALID,1011.02,VALID,0,INVALID,161.407,VALID,0,VALID,23.4602,VALID,106,VALID,0,
2014-08-09, 03:18:04,VALID,1011.01,VALID,0,INVALID,161.414,VALID,0,VALID,23.4797,VALID,106,VALID,0,
2014-08-09, 03:19:04,VALID,1011.03,VALID,0,INVALID,161.43,VALID,0,VALID,23.4602,VALID,106,VALID,0,
2014-08-09, 03:20:04,VALID,1011.05,VALID,0,INVALID,161.445,VALID,0,VALID,23.4602,VALID,106,VALID,0,
2014-08-09, 03:21:04,VALID,1011.07,VALID,0,INVALID,161.414,VALID,0,VALID,23.4797,VALID,106,VALID,0,
2014-08-09, 03:22:04,VALID,1011.05,VALID,0,INVALID,161.445,VALID,0,VALID,23.4602,VALID,106,VALID,0,
2014-08-09, 03:23:04,VALID,1011.06,VALID,0,INVALID,161.422,VALID,0,VALID,23.4602,VALID,106,VALID,0,
2014-08-09, 03:24:04,VALID,1011.06,VALID,0,INVALID,161.422,VALID,0,VALID,23.4602,VALID,106,VALID,0,
2014-08-09, 03:25:04,VALID,1011.06,VALID,0,INVALID,161.43,VALID,0,VALID,23.4407,VALID,106,VALID,0,
2014-08-09, 03:26:04,VALID,1011.05,VALID,0,INVALID,161.43,VALID,0,VALID,23.4212,VALID,106,VALID,0,
2014-08-09, 03:27:04,VALID,1011.06,VALID,0,INVALID,161.437,VALID,0,VALID,23.4407,VALID,106,VALID,0,
2014-08-09, 03:28:04,VALID,1011.04,VALID,0,INVALID,161.422,VALID,0.112112,VALID,23.462,VALID,106,VALID,0,
2014-08-09, 03:29:04,VALID,1011.03,VALID,0,INVALID,161.437,VALID,0,VALID,23.4425,VALID,106,VALID,0,
2014-08-09, 03:30:04,VALID,1011.05,VALID,0,INVALID,161.422,VALID,0,VALID,23.4425,VALID,106,VALID,0,
2014-08-09, 03:31:04,VALID,1011.04,VALID,0,INVALID,161.437,VALID,0.112112,VALID,23.4212,VALID,106,VALID,0,
2014-08-09, 03:32:04,VALID,1011.05,VALID,0,INVALID,161.422,VALID,0,VALID,23.4407,VALID,106,VALID,0,
2014-08-09, 03:33:04,VALID,1011.06,VALID,0,INVALID,161.422,VALID,0,VALID,23.4407,VALID,106,VALID,0,
2014-08-09, 03:34:04,VALID,1011.07,VALID,0,INVALID,161.422,VALID,0,VALID,23.462,VALID,106,VALID,0,
2014-08-09, 03:35:04,VALID,1011.08,VALID,0,INVALID,161.43,VALID,0,VALID,23.4212,VALID,106,VALID,0,
2014-08-09, 03:36:04,VALID,1011.11,VALID,0,INVALID,161.437,VALID,0,VALID,23.4212,VALID,106,VALID,0,
2014-08-09, 03:37:04,VALID,1011.14,VALID,0,INVALID,161.437,VALID,0,VALID,23.4212,VALID,106,VALID,0,
2014-08-09, 03:38:04,VALID,1011.14,VALID,0,INVALID,161.452,VALID,0,VALID,23.4212,VALID,106,VALID,0,
2014-08-09, 03:39:04,VALID,1011.14,VALID,0,INVALID,161.437,VALID,0,VALID,23.423,VALID,106,VALID,0,
2014-08-09, 03:40:04,VALID,1011.16,VALID,0,INVALID,161.452,VALID,0,VALID,23.423,VALID,106,VALID,0,
2014-08-09, 03:41:04,VALID,1011.16,VALID,0,INVALID,161.437,VALID,0,VALID,23.4017,VALID,106,VALID,0,
2014-08-09, 03:42:04,VALID,1011.19,VALID,0,INVALID,161.445,VALID,0,VALID,23.3628,VALID,106,VALID,0,
2014-08-09, 03:43:04,VALID,1011.18,VALID,0,INVALID,161.399,VALID,0,VALID,23.3628,VALID,106,VALID,0,
2014-08-09, 03:44:04,VALID,1011.18,VALID,0,INVALID,161.437,VALID,0,VALID,23.3645,VALID,106,VALID,0,
2014-08-09, 03:45:04,VALID,1011.18,VALID,0,INVALID,161.437,VALID,0,VALID,23.3238,VALID,106,VALID,0,
2014-08-09, 03:46:04,VALID,1011.17,VALID,0,INVALID,161.452,VALID,0,VALID,23.3043,VALID,106,VALID,0,
2014-08-09, 03:47:04,VALID,1011.16,VALID,0,INVALID,161.46,VALID,0,VALID,23.2848,VALID,106,VALID,0,
2014-08-09, 03:48:04,VALID,1011.19,VALID,0,INVALID,161.43,VALID,0,VALID,23.2654,VALID,106,VALID,0,
2014-08-09, 03:49:04,VALID,1011.17,VALID,0,INVALID,161.452,VALID,0.112112,VALID,23.2459,VALID,106,VALID,0,
2014-08-09, 03:50:04,VALID,1011.16,VALID,0,INVALID,161.46,VALID,0,VALID,23.2264,VALID,106,VALID,0,
2014-08-09, 03:51:04,VALID,1011.15,VALID,0,INVALID,161.452,VALID,0,VALID,23.2282,VALID,106,VALID,0,
2014-08-09, 03:52:04,VALID,1011.17,VALID,0,INVALID,161.452,VALID,0,VALID,23.2069,VALID,106,VALID,0,
2014-08-09, 03:53:04,VALID,1011.15,VALID,0,INVALID,161.43,VALID,0,VALID,23.1874,VALID,106,VALID,0,
2014-08-09, 03:54:04,VALID,1011.17,VALID,0,INVALID,161.437,VALID,0,VALID,23.1679,VALID,106,VALID,0,
2014-08-09, 03:55:04,VALID,1011.17,VALID,0,INVALID,161.445,VALID,0,VALID,23.1679,VALID,106,VALID,0,
2014-08-09, 03:56:04,VALID,1011.21,VALID,0,INVALID,161.46,VALID,0,VALID,23.1679,VALID,106,VALID,0,